Ponca City, OK

7:30 PM CDT on August 27, 2016 (GMT -0500)
Ponca City Municipal

Weather History for KPNC - February, 2014

Change the Weather History Date:

Friday, February 14, 2014

  Actual Average Record
Temperature  
Mean Temperature 44 °F -  
Max Temperature 57 °F 50 °F 82 °F (1954)
Min Temperature 32 °F 32 °F 12 °F (2007)
Degree Days  
Heating Degree Days 20    
Moisture  
Dew Point 29 °F    
Average Humidity 58    
Maximum Humidity 85    
Minimum Humidity 32    
Precipitation  
Precipitation 0.00 in - - ()
Sea Level Pressure  
Sea Level Pressure 29.92 in    
Wind  
Wind Speed 10 mph (North)    
Max Wind Speed 26 mph    
Max Gust Speed 39 mph    
Visibility 10 miles    
Events      
Averages and records for this station are not official NWS values.
T = Trace of Precipitation, MM = Missing Value Source: NWS Daily Summary

Daily Weather History Graph

Daily Weather History Graph

Search for Another Location

Airport or City:

Trip Planner

Search our weather history database for the weather conditions in past years. The results will help you decide how hot, cold, wet, or windy it might be!

Date:

Astronomy

Feb. 14, 2014 Rise Set
Actual Time 7:17 AM CST 6:07 PM CST
Civil Twilight 6:51 AM CST 6:34 PM CST
Nautical Twilight 6:20 AM CST 7:04 PM CST
Astronomical Twilight 5:50 AM CST 7:34 PM CST
Moon 6:11 PM CST (2/14) 6:46 AM CST (2/14)
Length of Visible Light 11h 43m
Length of Day
10h 50m
Full, 100% of the Moon is Illuminated
Feb 14
Full
Feb 14
Full
Feb 22
Last Quarter
Mar 1
New
Mar 8
First Quarter

Hourly Weather History & Observations

Time (CST) Temp. Windchill Dew Point Humidity Pressure Visibility Wind Dir Wind Speed Gust Speed Precip Events Conditions
12:53 AM 37.9 °F 32.1 °F 30.9 °F 76% 29.73 in 9.0 mi South 8.1 mph - N/A   Scattered Clouds
1:53 AM 32.0 °F - 28.0 °F 85% 29.72 in 7.0 mi Calm Calm - N/A   Clear
2:53 AM 41.0 °F 39.0 °F 33.1 °F 73% 29.77 in 9.0 mi North 3.5 mph - N/A   Mostly Cloudy
3:53 AM 43.0 °F 38.2 °F 33.1 °F 68% 29.66 in 10.0 mi South 8.1 mph - N/A   Clear
4:53 AM 43.0 °F 39.5 °F 33.1 °F 68% 29.67 in 10.0 mi SW 5.8 mph - N/A   Clear
5:53 AM 41.0 °F - 33.1 °F 73% 29.74 in 9.0 mi Calm Calm - N/A   Clear
6:53 AM 41.0 °F 35.2 °F 32.0 °F 70% 29.76 in 10.0 mi WNW 9.2 mph - N/A   Clear
7:53 AM 43.0 °F 36.4 °F 33.1 °F 68% 29.81 in 10.0 mi NNW 12.7 mph - N/A   Partly Cloudy
8:53 AM 48.0 °F - 33.1 °F 56% 29.85 in 10.0 mi North 20.7 mph 29.9 mph N/A   Clear
9:53 AM 51.1 °F - 32.0 °F 48% 29.91 in 10.0 mi North 26.5 mph 34.5 mph N/A   Clear
10:53 AM 55.0 °F - 30.9 °F 40% 29.94 in 10.0 mi North 21.9 mph 32.2 mph N/A   Clear
11:53 AM 55.9 °F - 30.0 °F 37% 29.95 in 10.0 mi North 24.2 mph 39.1 mph N/A   Clear
12:53 PM 57.9 °F - 30.9 °F 36% 29.96 in 10.0 mi NNW 24.2 mph 31.1 mph N/A   Clear
1:53 PM 57.9 °F - 28.0 °F 32% 29.97 in 10.0 mi NNW 18.4 mph 32.2 mph N/A   Clear
2:53 PM 57.0 °F - 28.9 °F 34% 29.98 in 10.0 mi NNW 20.7 mph 29.9 mph N/A   Clear
3:53 PM 57.0 °F - 28.9 °F 34% 30.00 in 10.0 mi North 19.6 mph 27.6 mph N/A   Partly Cloudy
4:53 PM 52.0 °F - 28.9 °F 41% 30.03 in 10.0 mi NNE 19.6 mph - N/A   Clear
5:53 PM 46.9 °F - 28.0 °F 48% 30.06 in 10.0 mi NE 10.4 mph - N/A   Clear
6:53 PM 39.0 °F 34.0 °F 26.1 °F 60% 30.11 in 10.0 mi NNE 6.9 mph - N/A   Clear
7:53 PM 37.0 °F 30.4 °F 25.0 °F 62% 30.11 in 10.0 mi NNE 9.2 mph - N/A   Clear
8:53 PM 34.0 °F 31.0 °F 25.0 °F 70% 30.09 in 10.0 mi ENE 3.5 mph - N/A   Clear
9:53 PM 32.0 °F 26.4 °F 24.1 °F 73% 30.12 in 10.0 mi NE 5.8 mph - N/A   Clear
10:53 PM 32.0 °F 28.7 °F 25.0 °F 75% 30.12 in 10.0 mi NE 3.5 mph - N/A   Clear
11:53 PM 35.1 °F 32.2 °F 24.1 °F 64% 30.12 in 10.0 mi East 3.5 mph - N/A   Clear